Regional Weather Roundup
Issued by NWS Newport/Morehead, NC

Current Version | Previous Version | Graphics & Text | Print | Product List | Glossary Off
Versions: 1 2 3 4 5 6 7 8 9 10 11 12 13 14 15 16 17 18 19 20 21 22 23 24 25 26 27 28 29 30 31 32 33 34 35 36 37 38 39 40 41 42 43 44 45 46 47 48 49 50

755
ASUS42 KMHX 081725
RWRMHX
WEATHER ROUNDUP FOR EASTERN NORTH CAROLINA
NATIONAL WEATHER SERVICE NEWPORT/MOREHEAD CITY NC
1200 PM EST THU DEC 08 2016

NOTE: "FAIR" INDICATES FEW OR NO CLOUDS BELOW 12,000 FEET
WITH NO SIGNIFICANT WEATHER AND/OR OBSTRUCTIONS TO VISIBILITY

NCZ015>017-031-032-045>047-102-103-081800-
NORTH COAST

CITY           SKY/WX    TMP DP  RH WIND       PRES   REMARKS
EDENTON        CLOUDY    55  49  81 W7        30.03F
ELIZABETH CITY CLOUDY    52  48  86 W8        30.01F
KITTY HAWK     CLOUDY    55  49  81 CALM      29.99F
MANTEO         CLOUDY    54  47  78 S6        30.01F

$$

NCZ045>047-081-094-103-104-081800-
CENTRAL COAST

CITY           SKY/WX    TMP DP  RH WIND       PRES   REMARKS
FRISCO         NOT AVBL

$$

NCZ095-097-098-100-101-081800-
SOUTHERN COAST

CITY           SKY/WX    TMP DP  RH WIND       PRES   REMARKS
BEAUFORT       PTSUNNY   59  50  72 W13       30.03F
CEDAR ISLAND   NOT AVBL
JACKSONVILLE   PTSUNNY   59  51  75 W13       30.05F
PINEY ISLAND   PTSUNNY  N/A N/A N/A W13       30.03F
WILMINGTON     MOSUNNY   59  50  72 W12       30.05F


$$

NCZ011>013-027>030-043-044-078>080-089-090>093-098-081800-
COASTAL PLAIN

CITY           SKY/WX    TMP DP  RH WIND       PRES   REMARKS
AHOSKIE        CLOUDY    49  41  73 CALM      30.04F
CLINTON        CLOUDY    55  47  76 NW8       30.08F
ELIZABETHTOWN  CLOUDY    57  49  77 NW7       30.07F
GOLDSBORO      CLOUDY    54  44  68 NW9       30.05F
GREENVILLE     CLOUDY    52  41  66 NW7       30.06F
HAVELOCK       CLOUDY    56  49  77 W13       30.05F
KENANSVILLE    CLOUDY    54  48  82 NW14      30.07F
KINSTON        CLOUDY    54  48  82 NW8       30.07F
NEW BERN       CLOUDY    55  49  80 W8        30.05F
RICHLANDS      CLOUDY    58  50  75 W7        30.06F
ROCKY MOUNT    CLOUDY    50  33  52 NW13      30.08F
WASHINGTON     CLOUDY    53  47  80 W8        30.05F
WHITEVILLE     CLOUDY    57  49  73 W7        30.08F

$$

AMZ130-135-150-152-154-156-158-170-250-252-270-ANZ085-086-088-633-658-670-081800-
MARINE OBSERVATIONS

STATION/POSITION TIME  TEMP    WIND        PRES    WAVE   SWELL
                       AIR SEA DIR/SP/G            HT/PER HT/PER
                 (UTC) (F)     (DEG/KT/KT) (MB)    (FT/S) (FT/S)
CHESAPEAKE LIGHT NOT AVBL
64 E VA BEACH    1650   53 59  220/  6/  8 1015.5    4/10   3/10
DUCK             1700   53 54  230/  3/  5 1015.3
2 E DUCK         NOT AVBL
OREGON INLET     1700   53 55  180/  5/  6 1015.9
13E OREGON INLT  NOT AVBL
HATTERAS CG      1700   57 61  300/  2/  4 1015.8
DIAMOND BUOY     1650   62 78  260/ 14/ 19 1016.2    4/11   3/11
CAPE LOOKOUT     1700   56     270/ 16/ 20 1016.8
BEAUFORT LAB     1700   57 55  260/  9/ 13 1016.0
30 SE NEW RVR IN 1708   54 70  300/ 14/ 19 1017.6
30 SE NEW RVR IN NOT AVBL
27 SE WRIGHTSVLE 1708   57 67  290/ 14/ 19 1017.3
5 SE WRIGHTSVLE  1708   56 62  280/ 12/ 17 1017.5
225 S CAPE HAT   1650   73 74  270/ 12/ 14 1017.0    5/10   3/10
41 SE CHARLESTON 1650   61 74  290/ 14/ 16 1018.3    2/ 4   2/ 7

$$




USA.gov is the U.S. government's official web portal to all federal, state and local government web resources and services.